FW5441 Weather Reports


time (UTC)temp
F
wind
direction
speed
knots
gust
knots
rain 1hr
in
rain 24hr
in
rain mn
in
humidity
%
barometer
mb
20200124020442 21 0 0.0 0.0 0.00 0.01 0.01 62 1019.5
20200124015542 22 0 0.0 0.0 0.00 0.01 0.01 61 1019.5
20200124014642 22 0 0.0 0.0 0.00 0.01 0.01 61 1019.7
20200124013742 22 0 0.0 0.0 0.00 0.01 0.01 60 1019.5
20200124012842 23 0 0.0 0.0 0.00 0.01 0.01 60 1019.4
20200124011942 23 0 0.0 0.0 0.00 0.01 0.01 60 1019.5
20200124011042 23 0 0.0 0.0 0.00 0.01 0.01 59 1019.6
20200124010142 24 0 0.0 0.0 0.00 0.01 0.01 59 1019.6
20200124005242 24 0 0.0 0.0 0.00 0.01 0.01 59 1019.8
20200124004342 24 0 0.0 0.0 0.00 0.01 0.01 57 1019.7
20200124003442 25 0 0.0 0.0 0.00 0.01 0.01 57 1019.7
20200124002542 25 0 0.0 0.0 0.00 0.01 0.01 57 1019.4
20200124001642 25 0 0.0 0.0 0.00 0.01 0.01 56 1019.6
20200124000743 26 45 0.0 0.9 0.00 0.01 0.01 56 1019.5
20200123235842 26 0 0.0 0.0 0.00 0.01 0.01 55 1019.2
20200123234942 26 0 0.0 0.0 0.00 0.01 0.01 54 1019.2
20200123234042 26 0 0.0 0.0 0.00 0.01 0.01 53 1019.1
20200123233142 26 0 0.0 0.0 0.00 0.01 0.01 53 1019.2
20200123232242 27 181 0.0 0.9 0.00 0.01 0.01 53 1019.2
20200123231342 27 0 0.0 0.0 0.00 0.01 0.01 52 1019.0
20200123230442 28 0 0.0 0.0 0.00 0.01 0.01 56 1019.0
20200123225542 28 22 0.0 0.9 0.00 0.01 0.01 56 1019.0
20200123224642 28 45 0.0 0.9 0.00 0.01 0.01 55 1018.8
20200123223742 28 0 0.0 0.0 0.00 0.01 0.01 55 1018.9
20200123222842 29 0 0.0 0.0 0.00 0.01 0.01 55 1018.4
20200123221942 29 0 0.0 0.0 0.00 0.01 0.01 54 1018.5
20200123221042 29 0 0.0 0.0 0.00 0.01 0.01 53 1018.5
20200123220142 30 0 0.0 0.0 0.00 0.01 0.01 52 1018.4
20200123215242 31 0 0.0 0.0 0.00 0.01 0.01 51 1018.5
20200123214342 31 0 0.0 0.0 0.00 0.01 0.01 51 1018.6
20200123213442 32 0 0.0 0.0 0.00 0.01 0.01 50 1018.3
20200123212542 32 0 0.0 0.0 0.00 0.01 0.01 50 1018.4
20200123211642 33 0 0.0 0.0 0.00 0.01 0.01 49 1018.4
20200123210742 33 0 0.0 0.0 0.00 0.01 0.01 49 1018.2
20200123205842 33 0 0.0 0.0 0.00 0.01 0.01 49 1018.2
20200123204942 33 0 0.0 0.0 0.00 0.01 0.01 48 1018.3
20200123204042 33 0 0.0 0.0 0.00 0.01 0.01 48 1018.4
20200123203142 33 0 0.0 0.0 0.00 0.01 0.01 47 1018.6
20200123202242 33 225 0.0 0.9 0.00 0.01 0.01 46 1018.5
20200123201342 33 220 0.0 0.9 0.00 0.01 0.01 46 1018.5
20200123200442 33 199 0.0 1.7 0.00 0.01 0.01 46 1018.7
20200123195542 34 213 0.0 1.7 0.00 0.01 0.01 47 1018.9
20200123194642 34 188 0.0 1.7 0.00 0.01 0.01 47 1018.7
20200123193742 34 174 0.0 1.7 0.00 0.01 0.01 48 1018.9
20200123192841 33 192 0.0 1.7 0.00 0.01 0.01 49 1018.8
20200123191941 33 204 0.0 1.7 0.00 0.01 0.01 49 1019.1
20200123191042 33 279 0.0 0.9 0.00 0.01 0.01 50 1019.2
20200123190142 32 102 0.0 0.9 0.00 0.01 0.01 50 1019.1
20200123185241 32 32 0.0 2.6 0.00 0.01 0.01 50 1019.2
20200123184341 32 32 1.7 2.6 0.00 0.01 0.01 50 1019.2
20200123183442 32 50 0.9 1.7 0.00 0.01 0.01 51 1019.5
20200123182542 32 26 0.0 2.6 0.00 0.01 0.01 51 1019.6
20200123181642 32 37 0.0 1.7 0.01 0.01 0.01 51 1019.7
20200123180742 31 34 0.0 3.5 0.01 0.01 0.01 51 1019.7
20200123175841 31 39 0.0 1.7 0.01 0.01 0.01 53 1019.7
20200123174941 31 50 0.9 1.7 0.01 0.01 0.01 53 1020.0
20200123174041 31 38 0.0 2.6 0.01 0.01 0.01 53 1019.9
20200123173142 30 35 0.0 1.7 0.01 0.01 0.01 54 1019.9
20200123172241 29 357 0.0 1.7 0.01 0.01 0.01 55 1020.0
20200123171341 29 35 0.0 1.7 0.00 0.00 0.00 56 1020.3
20200123170442 28 34 0.9 1.7 0.00 0.00 0.00 57 1020.4
20200123165542 28 9 0.0 1.7 0.00 0.00 0.00 56 1020.6
20200123164642 28 123 0.0 0.9 0.00 0.00 0.00 58 1020.6
20200123163742 27 91 0.0 1.7 0.00 0.00 0.00 55 1020.7
20200123162841 27 314 0.0 0.9 0.00 0.00 0.00 56 1020.8
20200123161941 26 29 0.0 0.9 0.00 0.00 0.00 57 1020.8
20200123161041 25 45 0.0 0.9 0.00 0.00 0.00 58 1020.9
20200123160142 25 277 0.0 0.9 0.00 0.00 0.00 59 1020.9
20200123155242 24 39 0.0 0.9 0.00 0.00 0.00 59 1021.2
20200123154342 23 74 0.0 0.9 0.00 0.00 0.00 59 1021.1
20200123153441 22 78 0.0 0.9 0.00 0.00 0.00 60 1021.4
20200123152541 22 49 0.0 0.9 0.00 0.00 0.00 61 1021.5
20200123151642 21 34 0.0 0.9 0.00 0.00 0.00 62 1021.3
20200123150741 21 48 0.0 0.9 0.00 0.00 0.00 64 1021.5
20200123145842 19 29 0.0 0.9 0.00 0.00 0.00 66 1021.4
20200123144941 18 0 0.0 0.0 0.00 0.00 0.00 62 1021.7
20200123144041 16 314 0.0 0.9 0.00 0.00 0.00 63 1021.6
20200123143142 14 181 0.0 0.9 0.00 0.00 0.00 64 1021.6
20200123142242 13 0 0.0 0.0 0.00 0.00 0.00 64 1021.4
20200123141341 11 113 0.0 0.9 0.00 0.00 0.00 64 1021.5
20200123140442 9 181 0.0 0.9 0.00 0.00 0.00 60 1021.4
20200123135542 7 171 0.0 0.9 0.00 0.00 0.00 60 1021.3
20200123134642 6 0 0.0 0.0 0.00 0.00 0.00 60 1020.9
20200123133741 5 0 0.0 0.0 0.00 0.00 0.00 60 1021.2
20200123132841 4 0 0.0 0.0 0.00 0.00 0.00 60 1021.0
20200123131941 4 45 0.0 0.9 0.00 0.00 0.00 61 1020.9
20200123131041 3 45 0.0 0.9 0.00 0.00 0.00 60 1021.1
20200123130141 3 45 0.0 0.9 0.00 0.00 0.00 60 1021.2
20200123125242 2 0 0.0 0.0 0.00 0.00 0.00 60 1021.0
20200123124341 2 0 0.0 0.0 0.00 0.00 0.00 60 1021.1
20200123123441 2 29 0.0 0.9 0.00 0.00 0.00 60 1020.8
20200123122541 2 9 0.0 0.9 0.00 0.00 0.00 60 1020.7
20200123121641 2 225 0.0 0.9 0.00 0.00 0.00 60 1020.9
20200123120741 2 0 0.0 0.0 0.00 0.00 0.00 60 1020.7
20200123115841 2 0 0.0 0.0 0.00 0.00 0.00 59 1020.8
20200123114941 2 0 0.0 0.0 0.00 0.00 0.00 59 1020.7
20200123114041 2 0 0.0 0.0 0.00 0.00 0.00 59 1020.9
20200123113141 2 0 0.0 0.0 0.00 0.00 0.00 59 1020.9
20200123112241 2 0 0.0 0.0 0.00 0.00 0.00 59 1021.1
20200123111341 3 0 0.0 0.0 0.00 0.00 0.00 59 1020.8
20200123110441 3 0 0.0 0.0 0.00 0.00 0.00 59 1020.6
20200123105541 2 0 0.0 0.0 0.00 0.00 0.00 59 1020.6
20200123104642 3 0 0.0 0.0 0.00 0.00 0.00 59 1020.9
20200123103741 3 0 0.0 0.0 0.00 0.00 0.00 60 1020.5
20200123102841 3 0 0.0 0.0 0.00 0.00 0.00 60 1020.5
20200123101941 3 41 0.0 0.9 0.00 0.00 0.00 60 1020.5
20200123101041 3 45 0.0 0.9 0.00 0.00 0.00 60 1020.5
20200123100141 3 0 0.0 0.0 0.00 0.00 0.00 60 1020.8
20200123095241 3 90 0.0 0.9 0.00 0.00 0.00 60 1020.9
20200123094341 3 0 0.0 0.0 0.00 0.00 0.00 60 1020.9
20200123093441 4 0 0.0 0.0 0.00 0.00 0.00 60 1021.2
20200123092541 4 0 0.0 0.0 0.00 0.00 0.00 60 1021.1
20200123091641 4 0 0.0 0.0 0.00 0.00 0.00 60 1021.0
20200123090741 4 0 0.0 0.0 0.00 0.00 0.00 60 1021.0
20200123085841 4 0 0.0 0.0 0.00 0.00 0.00 60 1021.1
20200123084942 4 0 0.0 0.0 0.00 0.00 0.00 60 1021.0
20200123084041 5 0 0.0 0.0 0.00 0.00 0.00 60 1021.1
20200123083141 5 0 0.0 0.0 0.00 0.00 0.00 60 1020.9
20200123082241 5 0 0.0 0.0 0.00 0.00 0.00 60 1021.0
20200123081341 5 0 0.0 0.0 0.00 0.00 0.00 60 1021.1
20200123080441 5 0 0.0 0.0 0.00 0.00 0.00 60 1021.2
20200123075541 5 0 0.0 0.0 0.00 0.00 0.00 60 1021.2
20200123074641 5 0 0.0 0.0 0.00 0.00 0.00 60 1021.3
20200123073741 6 0 0.0 0.0 0.00 0.00 0.00 60 1021.4
20200123072841 6 0 0.0 0.0 0.00 0.00 0.00 59 1021.3
20200123071941 6 0 0.0 0.0 0.00 0.00 0.00 59 1021.6
20200123071041 6 0 0.0 0.0 0.00 0.00 0.00 60 1021.5
20200123070141 7 0 0.0 0.0 0.00 0.00 0.00 60 1021.6
20200123065241 7 0 0.0 0.0 0.00 0.00 0.00 60 1021.3
20200123064341 7 0 0.0 0.0 0.00 0.00 0.00 60 1021.1
20200123063441 7 0 0.0 0.0 0.00 0.00 0.00 60 1021.2
20200123062541 8 0 0.0 0.0 0.00 0.00 0.00 60 1021.1
20200123061641 8 0 0.0 0.0 0.00 0.00 0.00 59 1020.9
20200123060742 8 0 0.0 0.0 0.00 0.00 0.00 59 1020.9
20200123055841 8 0 0.0 0.0 0.00 0.00 0.00 59 1020.9
20200123054941 8 0 0.0 0.0 0.00 0.00 0.00 59 1020.8
20200123053141 9 0 0.0 0.0 0.00 0.00 0.00 59 1020.6
20200123052241 9 0 0.0 0.0 0.00 0.00 0.00 60 1020.7
20200123051341 10 0 0.0 0.0 0.00 0.00 0.00 60 1020.9
20200123050441 10 0 0.0 0.0 0.00 0.00 0.00 64 1020.7
20200123045541 10 0 0.0 0.0 0.00 0.00 0.00 64 1020.8
20200123044641 10 0 0.0 0.0 0.00 0.00 0.00 64 1020.7
20200123043741 10 0 0.0 0.0 0.00 0.00 0.00 64 1020.9
20200123042841 10 0 0.0 0.0 0.00 0.00 0.00 64 1021.2
20200123041941 11 213 0.0 0.9 0.00 0.00 0.00 64 1021.1
20200123041041 12 0 0.0 0.0 0.00 0.00 0.00 63 1020.9
20200123040141 12 0 0.0 0.0 0.00 0.00 0.00 63 1021.0
20200123035242 12 0 0.0 0.0 0.00 0.00 0.00 63 1021.2
20200123034341 12 0 0.0 0.0 0.00 0.00 0.00 63 1021.3
20200123033441 13 0 0.0 0.0 0.00 0.00 0.00 63 1021.3
20200123032541 13 0 0.0 0.0 0.00 0.00 0.00 63 1021.4
20200123031641 13 0 0.0 0.0 0.00 0.00 0.00 62 1021.6
20200123030741 14 0 0.0 0.0 0.00 0.00 0.00 62 1021.7
20200123025841 14 0 0.0 0.0 0.00 0.00 0.00 62 1021.9
20200123024941 14 0 0.0 0.0 0.00 0.00 0.00 62 1021.8
20200123024041 15 0 0.0 0.0 0.00 0.00 0.00 62 1021.6
20200123023141 15 0 0.0 0.0 0.00 0.00 0.00 62 1021.8
20200123022241 15 0 0.0 0.0 0.00 0.00 0.00 61 1021.5
20200123021341 16 0 0.0 0.0 0.00 0.00 0.00 61 1021.7